,,,PA_Meas_PMT16A,,PR_Meas_QMR101_102,,RH_Meas_QMH101,,SR_Meas_QMS101,,TA_Meas_QMH101,,GenWind,,GenWind,
date,time,status,PA,status,PR,status,RH,status,SR,status,TA,status,DirAvg,status,SpdAvg,
2011-10-02, 00:00:05,VALID,1004.84,VALID,0,VALID,85.268,VALID,0,VALID,26.642,VALID,106,VALID,1.05547,
2011-10-02, 00:01:05,VALID,1004.88,VALID,0,VALID,85.4511,VALID,0,VALID,26.6635,VALID,42,VALID,0.546875,
2011-10-02, 00:02:05,VALID,1004.86,VALID,0,VALID,85.4053,VALID,0,VALID,26.6225,VALID,99,VALID,0.283594,
2011-10-02, 00:03:05,VALID,1004.83,VALID,0,VALID,85.2604,VALID,0,VALID,26.6225,VALID,42,VALID,0.884766,
2011-10-02, 00:04:05,VALID,1004.83,VALID,0,VALID,85.2756,VALID,0,VALID,26.6245,VALID,30,VALID,0.658203,
2011-10-02, 00:05:05,VALID,1004.83,VALID,0,VALID,84.9247,VALID,0,VALID,26.6635,VALID,27,VALID,1.19766,
2011-10-02, 00:06:05,VALID,1004.83,VALID,0,VALID,84.9171,VALID,0,VALID,26.6635,VALID,63,VALID,0.994531,
2011-10-02, 00:07:05,VALID,1004.8,VALID,0,VALID,84.8408,VALID,0,VALID,26.642,VALID,67,VALID,1.34102,
2011-10-02, 00:08:05,VALID,1004.82,VALID,0,VALID,84.7797,VALID,0,VALID,26.642,VALID,80,VALID,0.878906,
2011-10-02, 00:09:05,VALID,1004.81,VALID,0,VALID,84.8332,VALID,0,VALID,26.644,VALID,85,VALID,1.44102,
2011-10-02, 00:10:05,VALID,1004.78,VALID,0,VALID,84.7492,VALID,0,VALID,26.6225,VALID,90,VALID,1.07578,
2011-10-02, 00:11:05,VALID,1004.81,VALID,0,VALID,84.5814,VALID,0,VALID,26.6245,VALID,61,VALID,1.29766,
2011-10-02, 00:12:05,VALID,1004.8,VALID,0,VALID,84.5814,VALID,0,VALID,26.6635,VALID,40,VALID,1.41133,
2011-10-02, 00:13:05,VALID,1004.75,VALID,0,VALID,84.5967,VALID,0,VALID,26.6225,VALID,38,VALID,1.57734,
2011-10-02, 00:14:05,VALID,1004.74,VALID,0,VALID,84.4212,VALID,0.0815089,VALID,26.642,VALID,79,VALID,1.47266,
2011-10-02, 00:15:05,VALID,1004.73,VALID,0,VALID,84.3678,VALID,0,VALID,26.644,VALID,34,VALID,1.50664,
2011-10-02, 00:16:05,VALID,1004.71,VALID,0,VALID,84.5051,VALID,0,VALID,26.6225,VALID,92,VALID,1.01055,
2011-10-02, 00:17:05,VALID,1004.69,VALID,0,VALID,84.6806,VALID,0,VALID,26.603,VALID,58,VALID,0.470703,
2011-10-02, 00:18:05,VALID,1004.69,VALID,0,VALID,84.5814,VALID,0.0815089,VALID,26.6245,VALID,95,VALID,1.28594,
2011-10-02, 00:19:05,VALID,1004.68,VALID,0,VALID,84.589,VALID,0,VALID,26.603,VALID,74,VALID,0.988281,
2011-10-02, 00:20:05,VALID,1004.65,VALID,0,VALID,84.5127,VALID,0,VALID,26.603,VALID,67,VALID,1.00703,
2011-10-02, 00:21:05,VALID,1004.65,VALID,0,VALID,84.4364,VALID,0,VALID,26.603,VALID,70,VALID,1.53789,
2011-10-02, 00:22:05,VALID,1004.63,VALID,0,VALID,84.1923,VALID,0,VALID,26.642,VALID,71,VALID,1.14492,
2011-10-02, 00:23:05,VALID,1004.6,VALID,0,VALID,84.2381,VALID,0,VALID,26.6635,VALID,47,VALID,1.6418,
2011-10-02, 00:24:05,VALID,1004.58,VALID,0,VALID,84.3754,VALID,0,VALID,26.6225,VALID,30,VALID,0.599609,
2011-10-02, 00:25:05,VALID,1004.58,VALID,0,VALID,84.5204,VALID,0,VALID,26.603,VALID,25,VALID,1.04062,
2011-10-02, 00:26:05,VALID,1004.6,VALID,0,VALID,84.3907,VALID,0,VALID,26.6225,VALID,58,VALID,0.901172,
2011-10-02, 00:27:05,VALID,1004.58,VALID,0,VALID,84.5127,VALID,0,VALID,26.644,VALID,13,VALID,1.27695,
2011-10-02, 00:28:05,VALID,1004.57,VALID,0,VALID,84.6424,VALID,0,VALID,26.5835,VALID,51,VALID,1.36484,
2011-10-02, 00:29:05,VALID,1004.53,VALID,0,VALID,84.4822,VALID,0,VALID,26.5855,VALID,61,VALID,1.88828,
2011-10-02, 00:30:05,VALID,1004.57,VALID,0,VALID,84.8026,VALID,0,VALID,26.5446,VALID,55,VALID,0.528125,
2011-10-02, 00:31:05,VALID,1004.51,VALID,0,VALID,84.528,VALID,0,VALID,26.5466,VALID,127,VALID,0.590234,
2011-10-02, 00:32:05,VALID,1004.5,VALID,0,VALID,84.7569,VALID,0,VALID,26.5466,VALID,54,VALID,0.290625,
2011-10-02, 00:33:05,VALID,1004.49,VALID,0,VALID,84.8789,VALID,0.0815089,VALID,26.5251,VALID,40,VALID,0.450781,
2011-10-02, 00:34:05,VALID,1004.48,VALID,0,VALID,85.001,VALID,0.0815089,VALID,26.5056,VALID,65,VALID,0.777734,
2011-10-02, 00:35:05,VALID,1004.48,VALID,0,VALID,84.8789,VALID,0,VALID,26.5251,VALID,90,VALID,1.3543,
2011-10-02, 00:36:05,VALID,1004.44,VALID,0,VALID,84.795,VALID,0,VALID,26.5251,VALID,72,VALID,1.43125,
2011-10-02, 00:37:05,VALID,1004.42,VALID,0,VALID,84.6577,VALID,0.0815089,VALID,26.5251,VALID,18,VALID,0.951172,
2011-10-02, 00:38:05,VALID,1004.42,VALID,0,VALID,84.8026,VALID,0.0815089,VALID,26.5641,VALID,78,VALID,0.95625,
2011-10-02, 00:39:05,VALID,1004.39,VALID,0,VALID,84.7569,VALID,0,VALID,26.605,VALID,77,VALID,0.982031,
2011-10-02, 00:40:05,VALID,1004.35,VALID,0,VALID,84.4822,VALID,0,VALID,26.603,VALID,32,VALID,1.3457,
2011-10-02, 00:41:05,VALID,1004.37,VALID,0,VALID,84.2381,VALID,0,VALID,26.642,VALID,49,VALID,1.77109,
2011-10-02, 00:42:05,VALID,1004.34,VALID,0,VALID,84.2686,VALID,0.0815089,VALID,26.642,VALID,101,VALID,0.788672,
2011-10-02, 00:43:05,VALID,1004.31,VALID,0,VALID,84.1084,VALID,0,VALID,26.6614,VALID,94,VALID,1.12539,
2011-10-02, 00:44:05,VALID,1004.3,VALID,0,VALID,84.0321,VALID,0,VALID,26.7004,VALID,90,VALID,2.1082,
2011-10-02, 00:45:05,VALID,1004.28,VALID,0,VALID,83.9329,VALID,0.0815089,VALID,26.7199,VALID,79,VALID,0.791797,
2011-10-02, 00:46:05,VALID,1004.23,VALID,0,VALID,83.994,VALID,0.0815089,VALID,26.6984,VALID,76,VALID,0.700781,
2011-10-02, 00:47:05,VALID,1004.25,VALID,0,VALID,84.0169,VALID,0.0815089,VALID,26.7414,VALID,56,VALID,1.10781,
2011-10-02, 00:48:05,VALID,1004.24,VALID,0,VALID,84.3449,VALID,0,VALID,26.7024,VALID,24,VALID,0.794531,
2011-10-02, 00:49:05,VALID,1004.22,VALID,0,VALID,84.3754,VALID,0,VALID,26.644,VALID,86,VALID,0.843359,
2011-10-02, 00:50:05,VALID,1004.21,VALID,0,VALID,84.2915,VALID,0,VALID,26.6635,VALID,119,VALID,1.09453,
2011-10-02, 00:51:05,VALID,1004.18,VALID,0,VALID,84.261,VALID,0,VALID,26.683,VALID,72,VALID,0.712891,
2011-10-02, 00:52:05,VALID,1004.13,VALID,0,VALID,84.4364,VALID,0,VALID,26.6635,VALID,60,VALID,0.746484,
2011-10-02, 00:53:05,VALID,1004.14,VALID,0,VALID,84.4899,VALID,0,VALID,26.644,VALID,30,VALID,1.04531,
2011-10-02, 00:54:05,VALID,1004.11,VALID,0,VALID,84.467,VALID,0,VALID,26.6655,VALID,60,VALID,0.853516,
2011-10-02, 00:55:05,VALID,1004.14,VALID,0,VALID,84.3678,VALID,0,VALID,26.6635,VALID,50,VALID,1.4625,
2011-10-02, 00:56:05,VALID,1004.1,VALID,0,VALID,84.3296,VALID,0,VALID,26.7024,VALID,59,VALID,0.669141,
2011-10-02, 00:57:05,VALID,1004.12,VALID,0,VALID,84.3449,VALID,0,VALID,26.6614,VALID,34,VALID,1.16055,
2011-10-02, 00:58:05,VALID,1004.08,VALID,0,VALID,84.4899,VALID,0,VALID,26.644,VALID,15,VALID,1.19687,
2011-10-02, 00:59:05,VALID,1004.1,VALID,0,VALID,84.589,VALID,0,VALID,26.6245,VALID,61,VALID,0.725781,
2011-10-02, 01:00:05,VALID,1004.08,VALID,0,VALID,84.4441,VALID,0,VALID,26.6245,VALID,83,VALID,0.964453,
2011-10-02, 01:01:05,VALID,1004.07,VALID,0,VALID,84.3983,VALID,0,VALID,26.644,VALID,108,VALID,0.757813,
2011-10-02, 01:02:05,VALID,1004.06,VALID,0,VALID,84.5738,VALID,0,VALID,26.6245,VALID,98,VALID,1.02734,
2011-10-02, 01:03:05,VALID,1004.05,VALID,0,VALID,84.5814,VALID,0.0815089,VALID,26.6225,VALID,87,VALID,1.11992,
2011-10-02, 01:04:05,VALID,1004.04,VALID,0,VALID,84.6729,VALID,0,VALID,26.603,VALID,89,VALID,0.960156,
2011-10-02, 01:05:05,VALID,1004.05,VALID,0,VALID,84.6501,VALID,0.0815089,VALID,26.6245,VALID,74,VALID,0.977344,
2011-10-02, 01:06:05,VALID,1004.03,VALID,0,VALID,84.9247,VALID,0,VALID,26.603,VALID,87,VALID,0.924219,
2011-10-02, 01:07:05,VALID,1004,VALID,0,VALID,84.9171,VALID,0,VALID,26.5641,VALID,26,VALID,0.619531,
2011-10-02, 01:08:05,VALID,1004.02,VALID,0,VALID,85.1078,VALID,0,VALID,26.5446,VALID,81,VALID,0.780469,
2011-10-02, 01:09:05,VALID,1003.98,VALID,0,VALID,85.3061,VALID,0,VALID,26.5446,VALID,75,VALID,0.541406,
2011-10-02, 01:10:05,VALID,1003.96,VALID,0,VALID,85.1307,VALID,0.0815089,VALID,26.5056,VALID,100,VALID,1.1832,
2011-10-02, 01:11:05,VALID,1003.96,VALID,0,VALID,85.0468,VALID,0,VALID,26.5251,VALID,66,VALID,1.32383,
2011-10-02, 01:12:05,VALID,1003.96,VALID,0,VALID,85.1002,VALID,0,VALID,26.5426,VALID,105,VALID,0.822656,
2011-10-02, 01:13:05,VALID,1003.92,VALID,0,VALID,85.268,VALID,0.0815089,VALID,26.5641,VALID,73,VALID,0.900391,
2011-10-02, 01:14:05,VALID,1003.93,VALID,0,VALID,85.4892,VALID,0.0815089,VALID,26.5251,VALID,21,VALID,0.349219,
2011-10-02, 01:15:05,VALID,1003.92,VALID,0,VALID,85.1765,VALID,0.0815089,VALID,26.5056,VALID,83,VALID,0.877344,
2011-10-02, 01:16:05,VALID,1003.91,VALID,0,VALID,85.1917,VALID,0.0815089,VALID,26.5641,VALID,18,VALID,0.715234,
2011-10-02, 01:17:05,VALID,1003.88,VALID,0,VALID,85.0391,VALID,0.0815089,VALID,26.5641,VALID,16,VALID,1.85898,
2011-10-02, 01:18:05,VALID,1003.91,VALID,0,VALID,85.0468,VALID,0,VALID,26.5661,VALID,54,VALID,0.532812,
2011-10-02, 01:19:05,VALID,1003.89,VALID,0,VALID,85.0773,VALID,0,VALID,26.5661,VALID,39,VALID,0.964063,
2011-10-02, 01:20:05,VALID,1003.89,VALID,0,VALID,84.9171,VALID,0,VALID,26.5855,VALID,63,VALID,1.19414,
2011-10-02, 01:21:05,VALID,1003.92,VALID,0,VALID,85.1383,VALID,0,VALID,26.5855,VALID,86,VALID,0.583203,
2011-10-02, 01:22:05,VALID,1003.91,VALID,0,VALID,84.8637,VALID,0,VALID,26.5876,VALID,31,VALID,1.54023,
2011-10-02, 01:23:05,VALID,1003.9,VALID,0,VALID,84.9094,VALID,0,VALID,26.5855,VALID,62,VALID,0.576563,
2011-10-02, 01:24:05,VALID,1003.91,VALID,0,VALID,85.1154,VALID,0,VALID,26.5876,VALID,66,VALID,0.657812,
2011-10-02, 01:25:05,VALID,1003.9,VALID,0,VALID,85.0925,VALID,0,VALID,26.5661,VALID,48,VALID,1.03906,
2011-10-02, 01:26:05,VALID,1003.88,VALID,0,VALID,85.001,VALID,0,VALID,26.5446,VALID,58,VALID,0.987109,
2011-10-02, 01:27:05,VALID,1003.9,VALID,0,VALID,85.2146,VALID,0,VALID,26.5661,VALID,70,VALID,1.09219,
2011-10-02, 01:28:05,VALID,1003.9,VALID,0,VALID,85.0162,VALID,0,VALID,26.5466,VALID,66,VALID,1.00781,
2011-10-02, 01:29:05,VALID,1003.86,VALID,0,VALID,84.9934,VALID,0,VALID,26.5855,VALID,62,VALID,1.8832,
2011-10-02, 01:30:05,VALID,1003.87,VALID,0,VALID,85.0468,VALID,0,VALID,26.5855,VALID,75,VALID,1.18945,
2011-10-02, 01:31:05,VALID,1003.85,VALID,0,VALID,85.1459,VALID,0,VALID,26.5661,VALID,93,VALID,0.817969,
2011-10-02, 01:32:05,VALID,1003.84,VALID,0,VALID,85.1383,VALID,0,VALID,26.5466,VALID,88,VALID,1.28359,
2011-10-02, 01:33:04,VALID,1003.87,VALID,0,VALID,85.0468,VALID,0,VALID,26.5855,VALID,76,VALID,1.37148,
2011-10-02, 01:34:04,VALID,1003.87,VALID,0,VALID,85.2299,VALID,0,VALID,26.5661,VALID,79,VALID,0.239453,
2011-10-02, 01:35:04,VALID,1003.88,VALID,0,VALID,85.5274,VALID,0,VALID,26.5271,VALID,87,VALID,0.669141,
2011-10-02, 01:36:04,VALID,1003.87,VALID,0,VALID,85.5808,VALID,0,VALID,26.4881,VALID,94,VALID,0.919922,
2011-10-02, 01:37:04,VALID,1003.82,VALID,0,VALID,85.3748,VALID,0,VALID,26.5076,VALID,75,VALID,1.51758,
2011-10-02, 01:38:04,VALID,1003.83,VALID,0,VALID,85.3367,VALID,0,VALID,26.5076,VALID,82,VALID,0.461719,
2011-10-02, 01:39:04,VALID,1003.8,VALID,0,VALID,85.2604,VALID,0,VALID,26.5096,VALID,27,VALID,0.79375,
2011-10-02, 01:40:04,VALID,1003.78,VALID,0,VALID,85.0925,VALID,0,VALID,26.4492,VALID,66,VALID,1.28242,
2011-10-02, 01:41:04,VALID,1003.8,VALID,0,VALID,84.9552,VALID,0,VALID,26.4492,VALID,52,VALID,1.31133,
2011-10-02, 01:42:04,VALID,1003.8,VALID,0,VALID,85.0696,VALID,0,VALID,26.4297,VALID,17,VALID,0.897656,
2011-10-02, 01:43:04,VALID,1003.8,VALID,0,VALID,84.9247,VALID,0,VALID,26.4102,VALID,43,VALID,1.07773,
2011-10-02, 01:44:04,VALID,1003.81,VALID,0,VALID,85.0239,VALID,0,VALID,26.3907,VALID,24,VALID,0.637109,
2011-10-02, 01:45:04,VALID,1003.84,VALID,0,VALID,84.5661,VALID,0,VALID,26.3693,VALID,25,VALID,1.26719,
2011-10-02, 01:46:04,VALID,1003.84,VALID,0,VALID,84.4975,VALID,0,VALID,26.3713,VALID,352,VALID,1.61016,
2011-10-02, 01:47:04,VALID,1003.89,VALID,0,VALID,84.4136,VALID,0,VALID,26.3518,VALID,36,VALID,0.616406,
2011-10-02, 01:48:04,VALID,1003.88,VALID,0,VALID,84.0626,VALID,0,VALID,26.3518,VALID,31,VALID,0.430859,
2011-10-02, 01:49:04,VALID,1003.83,VALID,0,VALID,81.7129,VALID,0,VALID,26.3128,VALID,9,VALID,1.57852,
2011-10-02, 01:50:04,VALID,1003.85,VALID,0,VALID,81.9418,VALID,0,VALID,26.3323,VALID,24,VALID,0.673437,
2011-10-02, 01:51:04,VALID,1003.84,VALID,0,VALID,82.3614,VALID,0,VALID,26.3323,VALID,67,VALID,0.713672,
2011-10-02, 01:52:04,VALID,1003.83,VALID,0,VALID,81.7053,VALID,0,VALID,26.3323,VALID,48,VALID,0.414453,
2011-10-02, 01:53:04,VALID,1003.83,VALID,0,VALID,80.8585,VALID,0,VALID,26.3148,VALID,95,VALID,1.13555,
2011-10-02, 01:54:04,VALID,1003.83,VALID,0,VALID,80.355,VALID,0,VALID,26.3323,VALID,65,VALID,1.13477,
2011-10-02, 01:55:04,VALID,1003.83,VALID,0,VALID,80.0956,VALID,0,VALID,26.3518,VALID,71,VALID,1.15625,
2011-10-02, 01:56:04,VALID,1003.82,VALID,0,VALID,79.5997,VALID,0,VALID,26.3518,VALID,52,VALID,0.688281,
2011-10-02, 01:57:04,VALID,1003.84,VALID,0,VALID,79.5235,VALID,0,VALID,26.3713,VALID,55,VALID,0.527734,
2011-10-02, 01:58:04,VALID,1003.85,VALID,0,VALID,79.4853,VALID,0,VALID,26.3323,VALID,27,VALID,0.544531,
2011-10-02, 01:59:04,VALID,1003.86,VALID,0,VALID,79.1802,VALID,0,VALID,26.3713,VALID,94,VALID,1.13672,
2011-10-02, 02:00:04,VALID,1003.86,VALID,0,VALID,79.2717,VALID,0,VALID,26.3518,VALID,87,VALID,0.637891,
2011-10-02, 02:01:04,VALID,1003.86,VALID,0,VALID,79.3556,VALID,0,VALID,26.3518,VALID,112,VALID,1.02266,
2011-10-02, 02:02:04,VALID,1003.87,VALID,0,VALID,79.615,VALID,0,VALID,26.3323,VALID,5,VALID,0.793359,
2011-10-02, 02:03:04,VALID,1003.88,VALID,0,VALID,79.6074,VALID,0,VALID,26.3343,VALID,69,VALID,0.626953,
2011-10-02, 02:04:04,VALID,1003.89,VALID,0,VALID,79.8668,VALID,0,VALID,26.3128,VALID,63,VALID,0.710156,
2011-10-02, 02:05:04,VALID,1003.88,VALID,0,VALID,79.882,VALID,0,VALID,26.3128,VALID,74,VALID,1.38125,
2011-10-02, 02:06:04,VALID,1003.87,VALID,0,VALID,80.5381,VALID,0,VALID,26.3323,VALID,49,VALID,0.287891,
2011-10-02, 02:07:04,VALID,1003.82,VALID,0,VALID,80.3703,VALID,0,VALID,26.3128,VALID,25,VALID,0.803516,
2011-10-02, 02:08:04,VALID,1003.83,VALID,0,VALID,80.622,VALID,0,VALID,26.3323,VALID,91,VALID,1.59102,
2011-10-02, 02:09:04,VALID,1003.82,VALID,0,VALID,80.7212,VALID,0,VALID,26.3518,VALID,88,VALID,1.22227,
2011-10-02, 02:10:04,VALID,1003.8,VALID,0,VALID,80.8585,VALID,0,VALID,26.3907,VALID,52,VALID,1.11992,
2011-10-02, 02:11:04,VALID,1003.81,VALID,0,VALID,80.8966,VALID,0,VALID,26.3907,VALID,63,VALID,0.639453,
2011-10-02, 02:12:04,VALID,1003.81,VALID,0,VALID,81.0416,VALID,0,VALID,26.4122,VALID,63,VALID,0.735156,
2011-10-02, 02:13:04,VALID,1003.77,VALID,0,VALID,81.3162,VALID,0,VALID,26.3927,VALID,21,VALID,1.37305,
2011-10-02, 02:14:04,VALID,1003.78,VALID,0,VALID,81.4383,VALID,0,VALID,26.3693,VALID,50,VALID,0.74375,
2011-10-02, 02:15:04,VALID,1003.78,VALID,0,VALID,81.2247,VALID,0,VALID,26.3498,VALID,8,VALID,1.08555,
2011-10-02, 02:16:04,VALID,1003.81,VALID,0,VALID,81.4917,VALID,0,VALID,26.3713,VALID,27,VALID,0.553906,
2011-10-02, 02:17:04,VALID,1003.78,VALID,0,VALID,81.7358,VALID,0,VALID,26.3518,VALID,38,VALID,1.09063,
2011-10-02, 02:18:04,VALID,1003.77,VALID,0,VALID,81.362,VALID,0,VALID,26.3713,VALID,47,VALID,1.62031,
2011-10-02, 02:19:04,VALID,1003.75,VALID,0,VALID,81.6367,VALID,0,VALID,26.3518,VALID,69,VALID,0.242578,
2011-10-02, 02:20:04,VALID,1003.77,VALID,0,VALID,81.568,VALID,0,VALID,26.3518,VALID,67,VALID,0.977734,
2011-10-02, 02:21:04,VALID,1003.77,VALID,0,VALID,81.8579,VALID,0,VALID,26.3538,VALID,52,VALID,0.255078,
2011-10-02, 02:22:04,VALID,1003.73,VALID,0,VALID,82.0257,VALID,0,VALID,26.3128,VALID,64,VALID,0.263672,
2011-10-02, 02:23:04,VALID,1003.76,VALID,0,VALID,82.102,VALID,0,VALID,26.3148,VALID,64,VALID,0.219141,
2011-10-02, 02:24:04,VALID,1003.76,VALID,0,VALID,82.4224,VALID,0,VALID,26.2739,VALID,75,VALID,0.709766,
2011-10-02, 02:25:04,VALID,1003.73,VALID,0,VALID,82.4911,VALID,0,VALID,26.2544,VALID,46,VALID,0.480078,
2011-10-02, 02:26:04,VALID,1003.67,VALID,0,VALID,82.903,VALID,0,VALID,26.2564,VALID,44,VALID,0.242188,
2011-10-02, 02:27:04,VALID,1003.68,VALID,0,VALID,83.048,VALID,0,VALID,26.2349,VALID,24,VALID,0.531641,
2011-10-02, 02:28:04,VALID,1003.65,VALID,0,VALID,82.8268,VALID,0,VALID,26.1959,VALID,51,VALID,0.7375,
2011-10-02, 02:29:04,VALID,1003.63,VALID,0,VALID,82.8573,VALID,0,VALID,26.2154,VALID,38,VALID,0.401953,
2011-10-02, 02:30:04,VALID,1003.58,VALID,0,VALID,82.9717,VALID,0,VALID,26.2349,VALID,69,VALID,0.940234,
2011-10-02, 02:31:04,VALID,1003.59,VALID,0,VALID,83.376,VALID,0,VALID,26.2349,VALID,66,VALID,0.310937,
2011-10-02, 02:32:04,VALID,1003.58,VALID,0,VALID,83.3531,VALID,0,VALID,26.2154,VALID,42,VALID,0.841016,
2011-10-02, 02:33:04,VALID,1003.6,VALID,0,VALID,83.7956,VALID,0,VALID,26.1959,VALID,31,VALID,0.292578,
2011-10-02, 02:34:04,VALID,1003.59,VALID,0,VALID,83.8414,VALID,0,VALID,26.155,VALID,26,VALID,0.660937,
2011-10-02, 02:35:04,VALID,1003.59,VALID,0,VALID,83.6354,VALID,0,VALID,26.2349,VALID,24,VALID,0.988281,
2011-10-02, 02:36:04,VALID,1003.6,VALID,0,VALID,83.8643,VALID,0,VALID,26.2349,VALID,347,VALID,0.497656,
2011-10-02, 02:37:04,VALID,1003.62,VALID,0,VALID,83.9406,VALID,0,VALID,26.2349,VALID,45,VALID,0.395312,
2011-10-02, 02:38:04,VALID,1003.58,VALID,0,VALID,83.9406,VALID,0,VALID,26.2154,VALID,27,VALID,0.497656,
2011-10-02, 02:39:04,VALID,1003.57,VALID,0,VALID,84.2,VALID,0,VALID,26.2154,VALID,6,VALID,1.09648,
2011-10-02, 02:40:04,VALID,1003.54,VALID,0,VALID,83.8033,VALID,0,VALID,26.2154,VALID,22,VALID,0.961328,
2011-10-02, 02:41:04,VALID,1003.55,VALID,0,VALID,83.9024,VALID,0,VALID,26.2544,VALID,49,VALID,0.569922,
2011-10-02, 02:42:04,VALID,1003.53,VALID,0,VALID,83.8567,VALID,0,VALID,26.2544,VALID,75,VALID,0.514063,
2011-10-02, 02:43:04,VALID,1003.55,VALID,0,VALID,83.8795,VALID,0,VALID,26.2154,VALID,75,VALID,0.438281,
2011-10-02, 02:44:04,VALID,1003.53,VALID,0,VALID,84.2686,VALID,0,VALID,26.2154,VALID,51,VALID,0.358203,
2011-10-02, 02:45:04,VALID,1003.53,VALID,0,VALID,84.1694,VALID,0,VALID,26.1765,VALID,69,VALID,0.439844,
2011-10-02, 02:46:04,VALID,1003.52,VALID,0,VALID,84.0931,VALID,0,VALID,26.1959,VALID,89,VALID,0.613281,
2011-10-02, 02:47:04,VALID,1003.51,VALID,0,VALID,84.0092,VALID,0,VALID,26.1959,VALID,97,VALID,1.0082,
2011-10-02, 02:48:04,VALID,1003.5,VALID,0,VALID,83.9863,VALID,0.0815089,VALID,26.1745,VALID,73,VALID,0.7375,
2011-10-02, 02:49:04,VALID,1003.49,VALID,0,VALID,83.6507,VALID,0.0815089,VALID,26.1745,VALID,102,VALID,1.44766,
2011-10-02, 02:50:04,VALID,1003.48,VALID,0,VALID,83.727,VALID,0,VALID,26.1959,VALID,112,VALID,0.724219,
2011-10-02, 02:51:04,VALID,1003.49,VALID,0,VALID,83.6049,VALID,0,VALID,26.155,VALID,100,VALID,0.936719,
2011-10-02, 02:52:04,VALID,1003.46,VALID,0,VALID,83.7193,VALID,0,VALID,26.1355,VALID,71,VALID,0.530859,
2011-10-02, 02:53:04,VALID,1003.45,VALID,0,VALID,83.9101,VALID,0,VALID,26.0966,VALID,94,VALID,1.00273,
2011-10-02, 02:54:04,VALID,1003.48,VALID,0,VALID,84.3754,VALID,0,VALID,26.0771,VALID,23,VALID,0.355469,
2011-10-02, 02:55:04,VALID,1003.46,VALID,0,VALID,84.2991,VALID,0,VALID,26.0381,VALID,40,VALID,0.2125,
2011-10-02, 02:56:04,VALID,1003.5,VALID,0,VALID,84.5356,VALID,0.0815089,VALID,26.0401,VALID,69,VALID,0.0476562,
2011-10-02, 02:57:04,VALID,1003.53,VALID,0,VALID,84.7874,VALID,0,VALID,25.9992,VALID,69,VALID,0.330859,
2011-10-02, 02:58:04,VALID,1003.52,VALID,0,VALID,85.001,VALID,0.0815089,VALID,25.9602,VALID,109,VALID,0.360156,
2011-10-02, 02:59:04,VALID,1003.51,VALID,0,VALID,84.9781,VALID,0,VALID,25.9602,VALID,105,VALID,0.4875,
2011-10-02, 03:00:04,VALID,1003.49,VALID,0,VALID,85.2222,VALID,0.0815089,VALID,25.9602,VALID,63,VALID,0.886719,
2011-10-02, 03:01:04,VALID,1003.5,VALID,0,VALID,85.3138,VALID,0.0815089,VALID,25.9583,VALID,96,VALID,0.189063,
2011-10-02, 03:02:04,VALID,1003.45,VALID,0,VALID,85.3138,VALID,0.0815089,VALID,25.9602,VALID,91,VALID,0.991406,
2011-10-02, 03:03:04,VALID,1003.42,VALID,0,VALID,85.474,VALID,0,VALID,25.9836,VALID,64,VALID,0.328906,
2011-10-02, 03:04:04,VALID,1003.42,VALID,0,VALID,85.7334,VALID,0,VALID,25.9817,VALID,49,VALID,1.13867,
2011-10-02, 03:05:04,VALID,1003.39,VALID,0,VALID,85.596,VALID,0,VALID,25.9992,VALID,40,VALID,0.421875,
2011-10-02, 03:06:04,VALID,1003.39,VALID,0,VALID,85.5579,VALID,0,VALID,26.0012,VALID,68,VALID,0.854297,
2011-10-02, 03:07:04,VALID,1003.37,VALID,0,VALID,85.7486,VALID,0,VALID,25.9992,VALID,70,VALID,1.01055,
2011-10-02, 03:08:04,VALID,1003.37,VALID,0,VALID,85.7028,VALID,0,VALID,26.0401,VALID,49,VALID,0.411328,
2011-10-02, 03:09:04,VALID,1003.34,VALID,0,VALID,85.6037,VALID,0,VALID,26.0596,VALID,70,VALID,1.05156,
2011-10-02, 03:10:04,VALID,1003.37,VALID,0,VALID,85.741,VALID,0,VALID,26.0596,VALID,10,VALID,0.294141,
2011-10-02, 03:11:04,VALID,1003.35,VALID,0,VALID,85.7868,VALID,0,VALID,25.9992,VALID,19,VALID,0.0894531,
2011-10-02, 03:12:04,VALID,1003.32,VALID,0,VALID,85.7868,VALID,0,VALID,26.0206,VALID,71,VALID,0.582031,
2011-10-02, 03:13:04,VALID,1003.34,VALID,0,VALID,85.6952,VALID,0,VALID,26.0187,VALID,360,VALID,0.928125,
2011-10-02, 03:14:04,VALID,1003.36,VALID,0,VALID,85.8096,VALID,0,VALID,26.0596,VALID,66,VALID,0.353125,
2011-10-02, 03:15:04,VALID,1003.36,VALID,0,VALID,85.6647,VALID,0,VALID,26.0596,VALID,5,VALID,0.846094,
2011-10-02, 03:16:04,VALID,1003.36,VALID,0,VALID,85.6037,VALID,0,VALID,26.0791,VALID,84,VALID,1.025,
2011-10-02, 03:17:04,VALID,1003.4,VALID,0,VALID,85.5426,VALID,0,VALID,26.118,VALID,25,VALID,0.78125,
2011-10-02, 03:18:04,VALID,1003.38,VALID,0,VALID,85.3901,VALID,0,VALID,26.118,VALID,25,VALID,0.277344,
2011-10-02, 03:19:04,VALID,1003.35,VALID,0,VALID,85.3443,VALID,0,VALID,26.118,VALID,25,VALID,0.162891,
2011-10-02, 03:20:04,VALID,1003.36,VALID,0,VALID,85.6037,VALID,0,VALID,26.118,VALID,25,VALID,0.240625,
2011-10-02, 03:21:04,VALID,1003.37,VALID,0,VALID,85.5426,VALID,0,VALID,26.0791,VALID,25,VALID,0.355078,
2011-10-02, 03:22:04,VALID,1003.38,VALID,0,VALID,86.0767,VALID,0,VALID,26.0401,VALID,17,VALID,0.805078,
2011-10-02, 03:23:04,VALID,1003.35,VALID,0,VALID,86.42,VALID,0,VALID,26.0012,VALID,11,VALID,0.664453,
2011-10-02, 03:24:04,VALID,1003.32,VALID,0,VALID,86.6946,VALID,0,VALID,25.9018,VALID,360,VALID,0.927344,
2011-10-02, 03:25:04,VALID,1003.31,VALID,0,VALID,86.9921,VALID,0,VALID,25.8648,VALID,21,VALID,0.605078,
2011-10-02, 03:26:04,VALID,1003.27,VALID,0,VALID,87.0379,VALID,0,VALID,25.8259,VALID,360,VALID,1.31602,
2011-10-02, 03:27:04,VALID,1003.28,VALID,0,VALID,86.9311,VALID,0,VALID,25.8863,VALID,11,VALID,1.05352,
2011-10-02, 03:28:04,VALID,1003.27,VALID,0,VALID,87.1828,VALID,0,VALID,25.8453,VALID,16,VALID,0.549219,
2011-10-02, 03:29:04,VALID,1003.25,VALID,0,VALID,87.16,VALID,0,VALID,25.8259,VALID,16,VALID,0.303125,
2011-10-02, 03:30:04,VALID,1003.23,VALID,0,VALID,87.3965,VALID,0,VALID,25.8064,VALID,16,VALID,0.376953,
2011-10-02, 03:31:04,VALID,1003.22,VALID,0,VALID,87.4651,VALID,0,VALID,25.8064,VALID,42,VALID,0.612109,
2011-10-02, 03:32:04,VALID,1003.22,VALID,0,VALID,87.2744,VALID,0,VALID,25.8064,VALID,52,VALID,0.169922,
2011-10-02, 03:33:04,VALID,1003.18,VALID,0,VALID,87.3736,VALID,0,VALID,25.785,VALID,43,VALID,0.492188,
2011-10-02, 03:34:04,VALID,1003.2,VALID,0,VALID,87.2896,VALID,0,VALID,25.785,VALID,72,VALID,0.348828,
2011-10-02, 03:35:04,VALID,1003.18,VALID,0,VALID,87.3965,VALID,0,VALID,25.8259,VALID,77,VALID,1.07422,
2011-10-02, 03:36:04,VALID,1003.19,VALID,0,VALID,87.4499,VALID,0,VALID,25.8044,VALID,86,VALID,0.440234,
2011-10-02, 03:37:04,VALID,1003.17,VALID,0,VALID,87.6024,VALID,0,VALID,25.8259,VALID,65,VALID,0.414844,
2011-10-02, 03:38:04,VALID,1003.19,VALID,0,VALID,87.6863,VALID,0,VALID,25.785,VALID,51,VALID,0.496484,
2011-10-02, 03:39:04,VALID,1003.18,VALID,0,VALID,87.5185,VALID,0,VALID,25.8044,VALID,34,VALID,0.773438,
2011-10-02, 03:40:04,VALID,1003.16,VALID,0,VALID,87.6024,VALID,0,VALID,25.8239,VALID,48,VALID,0.25625,
2011-10-02, 03:41:04,VALID,1003.14,VALID,0,VALID,87.6863,VALID,0,VALID,25.8044,VALID,48,VALID,0.191016,
2011-10-02, 03:42:04,VALID,1003.15,VALID,0,VALID,87.8389,VALID,0,VALID,25.8259,VALID,77,VALID,0.533984,
2011-10-02, 03:43:04,VALID,1003.14,VALID,0,VALID,87.5643,VALID,0,VALID,25.8668,VALID,101,VALID,0.658203,
2011-10-02, 03:44:04,VALID,1003.14,VALID,0,VALID,87.5338,VALID,0,VALID,25.8434,VALID,83,VALID,0.390234,
2011-10-02, 03:45:04,VALID,1003.13,VALID,0,VALID,87.6101,VALID,0,VALID,25.8648,VALID,45,VALID,0.539453,